Flag for Cameroon Weather past 2 weeks in Douala, Cameroon

Now
82 °F

Partly cloudy.


Feels Like: 91 °F
Forecast: 74 / 90 °F
Wind: No wind

Location: Douala Obs.

Current Time: Dec 22, 2014 at 7:43:41 PM

Latest Report: Dec 22, 2014 at 7:00 PM


Visibility: N/A

Pressure: 29.80 "Hg

Humidity: 84%

Dew point: 77 °F

Location of DoualaLocation

Historic Weather in Douala — Graph

°F

Douala temperature yesterday

Maximum temperature yesterday: 91 °F (at 2:00 PM)
Minimum temperature yesterday: 77 °F (at 5:00 AM)
Average temperature yesterday: 83 °F

Past Weeks' High & Low Weather Summary

 TemperatureHumidityPressure
High93 °F (Dec 19, 2:00 PM)100% (Dec 8, 6:00 AM)29.95 "Hg (Dec 8, 6:00 AM)
Low73 °F (Dec 11, 8:00 PM)49% (Dec 16, 3:00 PM)29.74 "Hg (Dec 12, 3:00 PM)
Average82 °F85%29.85 "Hg
* Reported Dec 7 6:00 PM — Dec 22 6:00 PM, Douala, Weather by CustomWeather, © 2014

Note: Actual official high and low records may vary slightly from our data, if they occured in-between our weather recording intervals... More about our weather records

Advertising

Douala weather history for previous 24 hours

 ConditionsComfort  
Time TempWeatherWind HumidityBarometerVisibility
6:00 PM
Dec 22
86 °FPartly sunny.5 mph70%29.80 "HgN/A
5:00 PM88 °FPartly sunny.7 mph66%29.80 "HgN/A
4:00 PM90 °FPartly sunny.7 mph63%29.77 "HgN/A
3:00 PM91 °FBroken clouds.7 mph59%29.80 "Hg5 mi
2:00 PM91 °FPartly sunny.12 mph59%29.83 "Hg5 mi
1:00 PM91 °FPartly sunny.7 mph63%29.86 "Hg5 mi
12:00 PM88 °FPartly sunny.5 mph70%29.89 "Hg4 mi
11:00 AM84 °FPartly sunny.5 mph84%29.92 "Hg4 mi
10:00 AM84 °FPartly sunny.No wind84%29.92 "Hg5 mi
9:00 AM81 °FFog.No wind89%29.92 "Hg2 mi
8:00 AM79 °FThunderstorms. Fog.No wind94%29.89 "Hg1 mi
7:00 AM77 °FThunderstorms. Fog.No wind94%29.86 "Hg1 mi
6:00 AM77 °FThunderstorms. Passing clouds.No wind94%29.86 "Hg4 mi
5:00 AM77 °FThunderstorms. Passing clouds.No wind94%29.86 "Hg4 mi
4:00 AM77 °FThunderstorms. Passing clouds.No wind94%29.83 "Hg4 mi
3:00 AM79 °FThunderstorms. Passing clouds.No wind100%29.86 "Hg4 mi
2:00 AM79 °FThunderstorms. Passing clouds.No wind100%29.86 "Hg4 mi
1:00 AM79 °FLight rain. Passing clouds.5 mph100%29.89 "Hg4 mi
12:00 AM79 °FPassing clouds.No wind100%29.89 "Hg4 mi
11:00 PM
Dec 21
79 °FPassing clouds.No wind94%29.89 "Hg4 mi
10:00 PM81 °FPassing clouds.No wind94%29.89 "Hg4 mi
9:00 PM81 °FPassing clouds.No wind94%29.86 "Hg4 mi
8:00 PM82 °FPassing clouds.No wind89%29.83 "Hg4 mi
7:00 PM82 °FPassing clouds.No wind84%29.80 "Hg4 mi
Weather by CustomWeather, © 2014

See weather overviewHow to use our weather pages